Flag for USA

Past Weather in Cape Canaveral, Florida, USA — Yesterday and Last 2 Weeks

Now
77 °F

Passing clouds.


Feels Like: 79 °F
Forecast: 84 / 76 °F
Wind: 6 mph from Northeast

Location: Cape Kennedy
Current Time: Sep 23, 2020 at 12:31:48 am
Latest Report: Sep 22, 2020 at 11:56 pm
Visibility: 10 mi
Pressure30.04 "Hg
Humidity: 61%
Dew Point: 62 °F
Location of Cape CanaveralLocation

Past Weather in Cape Canaveral — Graph

°F

Cape Canaveral Temperature Yesterday

Maximum temperature yesterday: 84 °F (at 1:56 pm)
Minimum temperature yesterday: 76 °F (at 10:56 pm)
Average temperature yesterday: 80 °F

High & Low Weather Summary for the Past Weeks

 TemperatureHumidityPressure
High90 °F (Sep 19, 2:56 pm)94% (Sep 9, 1:13 am)30.09 "Hg (Sep 9, 1:13 am)
Low75 °F (Sep 9, 6:56 am)51% (Sep 21, 4:56 pm)29.82 "Hg (Sep 17, 3:56 pm)
Average81 °F81%29.94 "Hg
* Reported Sep 7 10:56 pm — Sep 22 10:56 pm, Cape Canaveral. Weather by CustomWeather, © 2020

Note: Actual official high and low records may vary slightly from our data, if they occured in-between our weather recording intervals... More about our weather records

Cape Canaveral Weather History for the Previous 24 Hours

Scroll right to see more
 ConditionsComfort  
Time TempWeatherWind HumidityBarometerVisibility
10:56 pm
Tue, Sep 22
76 °FClear.8 mph59%30.05 "Hg10 mi
9:56 pm77 °FClear.8 mph61%30.05 "Hg10 mi
8:56 pm77 °FClear.9 mph61%30.04 "Hg10 mi
7:56 pm78 °FPassing clouds.9 mph60%30.03 "Hg10 mi
6:56 pm78 °FScattered clouds.10 mph63%30.03 "Hg10 mi
5:56 pm80 °FOvercast.9 mph62%30.03 "Hg10 mi
4:56 pm82 °FPassing clouds.9 mph61%30.03 "Hg10 mi
3:56 pm83 °FSunny.13 mph59%30.04 "Hg10 mi
2:56 pm84 °FSunny.9 mph57%30.05 "Hg10 mi
1:56 pm84 °FScattered clouds.14 mph54%30.07 "Hg10 mi
12:56 pm82 °FPartly sunny.9 mph58%30.08 "Hg10 mi
11:56 am83 °FScattered clouds.10 mph61%30.09 "Hg10 mi
10:56 am83 °FPartly sunny.12 mph52%30.09 "Hg10 mi
9:56 am83 °FPassing clouds.15 mph53%30.08 "Hg10 mi
8:56 am80 °FPartly sunny.16 mph58%30.07 "Hg10 mi
7:56 am79 °FOvercast.10 mph66%30.05 "Hg10 mi
6:56 am79 °FOvercast.16 mph65%30.04 "Hg10 mi
5:56 am79 °FPassing clouds.15 mph66%30.03 "Hg10 mi
4:56 am80 °FOvercast.17 mph63%30.03 "Hg10 mi
3:56 am80 °FOvercast.15 mph54%30.02 "Hg10 mi
2:56 am79 °FPassing clouds.18 mph57%30.03 "Hg10 mi
1:56 am79 °FPassing clouds.15 mph61%30.04 "Hg10 mi
12:56 am79 °FPassing clouds.17 mph67%30.06 "Hg10 mi
Weather by CustomWeather, © 2020

See weather overview